Voltar ao catálogo

YAOGAN-39 05A

AtivoMilitarVLEO
NORAD 58557·PAYLOAD·🇨🇳 China

Lançado Dec 10, 2023 de Xichang Satellite Launch Center

Loading…

Próximas Passagens (próximas 24 horas)

TLE

AtualizadoSource: Space-Track

Época: Sep 14, 2026, 21:41 UTC

1 58557U 23194A   26257.90415050  .00008283  00000-0  34384-3 0  9991
2 58557  35.0005 213.1654 0004542  33.6467 326.4536 15.23104345154042

Acompanhe YAOGAN-39 05A em tempo real com AllMySat

Download on the App Store